This is the latest recevied weather packets stored in our database for station/object DG4DAZ-6. If no packets are shown the sender has not sent any weather packets the latest 10 day(s).
| Time | Temp. | Humidity | Pressure | Rain* | Wind** | Luminosity | Snow |
|---|---|---|---|---|---|---|---|
| 1777963282 | 11.67° C | 96% | 1008.6 hPa | 0.76 mm | - | 49 W/m² | - |
| 1777962684 | 11.67° C | 96% | 1008.8 hPa | 0.76 mm | - | 58 W/m² | - |
| 1777962083 | 11.67° C | 95% | 1008.8 hPa | 1.02 mm | - | 50 W/m² | - |
| 1777961483 | 11.67° C | 95% | 1008.8 hPa | 1.27 mm | - | 65 W/m² | - |
| 1777960882 | 11.67° C | 95% | 1008.9 hPa | 1.52 mm | - | 60 W/m² | - |
| 1777960282 | 11.11° C | 95% | 1008.9 hPa | 1.02 mm | - | 48 W/m² | - |
| 1777959684 | 11.11° C | 95% | 1008.9 hPa | 0.76 mm | - | 44 W/m² | - |
| 1777959083 | 11.11° C | 95% | 1008.9 hPa | 0.76 mm | - | 25 W/m² | - |
| 1777958482 | 11.11° C | 95% | 1008.9 hPa | 0.51 mm | - | 15 W/m² | - |
| 1777957884 | 11.11° C | 95% | 1009 hPa | 0.25 mm | - | 27 W/m² | - |
| 1777957283 | 11.11° C | 95% | 1009 hPa | 0 mm | - | 17 W/m² | - |
| 1777956684 | 11.11° C | 95% | 1008.9 hPa | 0 mm | - | 9 W/m² | - |
| 1777956083 | 11.11° C | 95% | 1009 hPa | 0 mm | - | 6 W/m² | - |
| 1777955482 | 11.11° C | 95% | 1009 hPa | 0.51 mm | - | 0 W/m² | - |
| 1777954884 | 11.11° C | 95% | 1009.1 hPa | 0.51 mm | - | 0 W/m² | - |
| 1777954283 | 11.11° C | 95% | 1009 hPa | 0.51 mm | - | 0 W/m² | - |
| 1777953682 | 11.11° C | 95% | 1009.1 hPa | 0.51 mm | - | 0 W/m² | - |
| 1777953084 | 11.11° C | 95% | 1009.2 hPa | 0.51 mm | - | 0 W/m² | - |
| 1777952484 | 11.67° C | 95% | 1009.3 hPa | 0.51 mm | - | 0 W/m² | - |
| 1777951882 | 11.67° C | 95% | 1009.3 hPa | 0 mm | - | 0 W/m² | - |
| 1777951284 | 11.11° C | 95% | 1009.3 hPa | 0 mm | - | 0 W/m² | - |
| 1777950684 | 11.11° C | 95% | 1009.4 hPa | 0 mm | - | 0 W/m² | - |
| 1777950083 | 11.11° C | 95% | 1009.4 hPa | 0 mm | - | 0 W/m² | - |
| 1777949484 | 11.11° C | 95% | 1009.4 hPa | 0 mm | - | 0 W/m² | - |
| 1777948883 | 11.11° C | 95% | 1009.5 hPa | 0 mm | - | 0 W/m² | - |
* Rain latest hour (hover to see other rain measurements)
** Current wind speed in m/s (hover to see current wind gust speed)